www.pogodaiklimat.ru

Погода и климат >> Архив погоды >> Россия >> Краснодарский край >> Тамань


ПОГОДА в Тамани

  • Прогноз погоды в Тамани
  • Монитор погоды в Тамани
  • Климат города

АРХИВ ПОГОДЫ в Тамани

Время (UTC), дата Ветер
(напр.,м/с)
 
Видим.   Явления Облачность Т
(С)
Тd
(С)
f
(%)
Тe
(С)
Тes
(С)
Комфортность P
(гПа)
Po
(гПа)
Тmin
(С)
Tmax
(С)
R
(мм)
R24
(мм)
S
(см)
00 14.02 С 1 10 км {морось} 10/10 600 м
[Sc]
+0.7 -2.0 82 -1 -1 1020.6 1018.6
03 14.02 В 1 10 км 10/10 600 м
[Sc]
+0.4 -1.7 86 -2 -2 1021.2 1019.1 +0.4 0.7
06 14.02 В 3 10 км 8/0
[Ac As Ci fib]
+1.0 -0.9 87 -4 -3 1021.2 1019.1 +0.4
09 14.02 В 3 10 км 10/10 600 м
[Sc]
+3.3 +0.8 84 -1 -1 1021.3 1019.3
12 14.02 СВ 5 20 км 10/8 600 м
[Sc Ac trans]
+5.7 +2.6 80 +1 +2 1020.2 1018.2
15 14.02 В 5
{10}
10 км 10/8 1000 м
[Sc Ac trans]
+4.4 +2.2 86 -1 -1 1020.0 1018.0 +6.2
18 14.02 В 7-11
{11}
10 км 4/0
[Ac trans]
+3.7 +2.0 89 -2 -2 1019.5 1017.5
21 14.02 В 5
{11}
10 км ясно +3.0 +1.6 91 -2 -2 1019.5 1017.5
00 15.02 В 3 10 км 6/0
[Ac trans]
+2.8 +1.7 92 -1 -1 1019.5 1017.5
03 15.02 В 4 10 км 10/10 600 м
[Sc]
+2.5 +1.4 92 -2 -2 1019.4 1017.4 +2.5
06 15.02 В 5 4000 м 10/10 600 м
[Sc]
+2.6 +1.3 91 -3 -3 1020.1 1018.1 +2.3
09 15.02 В 4 4000 м ливневой дождь 10/10 600 м
[Sc]
+2.5 +1.3 92 -2 -2 1021.7 1019.7
12 15.02 СВ 2 4000 м дымка {ливн. осадки} 8/6 600 м
[Sc As trans]
+4.8 +3.7 93 +2 +3 1022.0 1020.0
15 15.02 СВ 1 10 км ясно +4.7 +3.2 90 +3 +3 1022.7 1020.7 +5.9 6
18 15.02 штиль 0 10 км {дождь} ясно +2.7 +1.6 92 +2 +2 1024.0 1022.0
21 15.02 С 1 10 км 10/10 600 м
[Sc]
+3.3 +2.3 93 +2 +2 1024.5 1022.5
00 16.02 В 1 4000 м 10/10 600 м
[Sc]
+3.6 +2.8 94 +2 +2 1025.1 1023.0
03 16.02 СВ 2 200 м туман 10/10 600 м
[Sc]
+1.8 +1.2 96 -2 -2 1025.3 1023.3 +1.3
06 16.02 СВ 2 4000 м дымка {туман} ясно +2.1 +1.5 96 -1 0 1025.5 1023.5
09 16.02 СВ 4 20 км 4/0
[Ci fib]
+4.4 +3.0 91 0 +4 1025.4 1023.4
12 16.02 СВ 3 10 км 9/0
[Ac trans Cs]
+5.6 +3.0 83 +2 +4 1024.7 1022.7
15 16.02 СВ 4 10 км 9/5 600 м
[Sc Ac trans]
+4.2 +2.7 90 -0 -0 1024.1 1022.1 +5.8
18 16.02 СВ 5 10 км 10/10 1000 м
[Sc]
+4.6 +3.2 91 -0 -0 1024.2 1022.2
21 16.02 СВ 3 10 км ясно +3.9 +2.7 92 0 0 1023.5 1021.5
00 17.02 СВ 3 4000 м дымка 10/10 1000 м
[Sc]
+3.5 +2.4 92 -1 -1 1022.7 1020.7
03 17.02 СВ 3 4000 м дымка 10/10 1000 м
[Sc]
+2.9 +2.0 94 -1 -1 1022.2 1020.2 +2.9
06 17.02 С 2 4000 м дымка 10/8 600 м
[Sc Ac trans]
+3.1 +2.1 93 -0 0 1022.3 1020.3 +2.8
09 17.02 СВ 6 10 км 10/5 1500 м
[Sc Ac trans Cc]
+4.5 +2.6 87 -1 -0 1021.5 1019.5
12 17.02 С 4 4000 м дымка 10/10 300 м
[St]
+4.5 +2.5 87 0 0 1020.5 1018.5
15 17.02 С 3 4000 м дымка 10/9 300 м
[St As op]
+2.7 +1.6 92 -2 -2 1020.8 1018.8 +6.9
18 17.02 С 3 4000 м дымка 10/10 300 м
[St]
+2.3 +1.4 94 -2 -2 1021.5 1019.4
21 17.02 СЗ 4 10 км 10/10 600 м
[St]
+2.0 +1.0 93 -3 -3 1021.5 1019.5
00 18.02 СЗ 4 10 км 10/10 600 м
[St]
+1.5 -0.0 90 -4 -4 1022.0 1020.0
03 18.02 С 4 10 км 10/10 600 м
[Sc]
+1.6 -0.0 89 -4 -4 1021.4 1019.4 +1.2
06 18.02 С 3 20 км 10/10 600 м
[Sc]
+1.6 -0.3 87 -3 -3 1022.8 1020.7
09 18.02 С 2 20 км 8/8 600 м
[Sc]
+2.6 +0.1 84 -1 +1 1022.5 1020.5
12 18.02 С 2 20 км 6/6 600 м
[Sc]
+3.8 +0.7 80 +1 +3 1022.2 1020.2
15 18.02 С 2 10 км 10/10 600 м
[St]
+2.0 -0.2 85 -1 -1 1022.7 1020.7 +4.1
18 18.02 С 1 10 км 5/0
[Ac trans]
+1.9 -0.2 86 0 0 1022.8 1020.8
21 18.02 СВ 2 10 км 3/0
[Ac trans]
+2.0 -0.1 86 -1 -1 1022.4 1020.4
00 19.02 СВ 1 10 км 1/0
[Ci fib]
+2.2 +0.1 86 +1 +1 1021.8 1019.8
03 19.02 С 1 10 км 3/0
[Ac trans]
+2.2 +0.3 87 +1 +1 1021.7 1019.7 +1.7
06 19.02 С 2 4000 м дымка 10/10 600 м
[Sc]
+2.3 +0.2 86 -1 -1 1022.5 1020.5
09 19.02 СЗ 1 4000 м дымка 10/10 600 м
[Sc]
+3.6 +0.3 79 +2 +2 1022.7 1020.7
12 19.02 С 2 10 км 10/10 600 м
[Sc]
+3.6 +0.6 81 +1 +1 1022.4 1020.4
15 19.02 С 2 10 км 9/3 600 м
[St Cs]
+1.8 +0.1 88 -2 -2 1023.0 1020.9 +4.4
18 19.02 С 1 10 км 8/8 600 м
[St]
+1.4 +0.3 92 -1 -1 1023.1 1021.1
21 19.02 С 2 10 км 8/8 600 м
[Sc]
+1.1 +0.1 93 -2 -2 1022.4 1020.4
00 20.02 С 2 4000 м дымка 10/10 600 м
[Sc]
+1.5 +0.7 94 -2 -2 1022.2 1020.2
03 20.02 С 2 10 км 10/10 600 м
[Sc]
+1.7 -0.6 85 -2 -2 1022.0 1020.0 +0.9
06 20.02 СВ 5
{10}
10 км 8/4 1000 м
[Sc Ac trans Ci fib]
+2.0 -1.1 80 -3 -3 1022.6 1020.6
09 20.02 СВ 4
{10}
10 км 8/8 600 м
[Sc]
+3.0 -1.1 74 -2 -1 1022.5 1020.5
12 20.02 СВ 4
{10}
10 км 8/3 600 м
[Cu med, cong Ci fib]
+3.0 -1.1 74 -2 0 1021.8 1019.8
15 20.02 С 3
{10}
10 км 8/0
[Cs]
+2.1 -1.7 76 -2 -2 1021.5 1019.5 +3.1
18 20.02 СВ 5-11
{11}
10 км ясно +1.8 -1.4 79 -4 -4 1021.5 1019.5
21 20.02 СВ 7-12
{12}
10 км 3/3 600 м
[Cu hum]
+1.6 -1.2 82 -5 -5 1021.1 1019.1

 

Местоположение метеостанции Тамань (Краснодарский край, Россия): широта 45.22 долгота 36.72 высота над уровнем моря 17 м.

В архиве по умолчанию представлена погода в Тамани за последнюю неделю. Архивные данные за месяц целиком и за предыдущие месяцы, начиная с января 2011 года, Вы можете получить, выбрав интересующий диапазон дат из раскрывающегося списка и нажав кнопку "Ввод!".

Внимание! Время в таблицах - всемирное. Для получения местного времени необходимо прибавить поправку, которая в Тамани равна 3 ч.

Смотрите также архив погоды в соседних городах и на ближайших метеорологических станциях:

Погода в Опасном (Крым, Россия) (18 км)
Погода в Керчи (Крым, Россия) (28 км)
Погода в Темрюке (Краснодарский край, Россия) (53 км)
Погода в Анапе (Краснодарский край, Россия) (58 км)
Погода на Мысовом (Крым, Россия) (75 км)
Погода в Новороссийске (Краснодарский край, Россия) (105 км)
Погода в Владиславовке (Крым, Россия) (105 км)
Погода в Крымске (Краснодарский край, Россия) (106 км)
Погода в Феодосии (Крым, Россия) (107 км)
Погода в Славянске-на-Кубани (Краснодарский край, Россия) (110 км)

Пояснения к столбцам:

Ветер - указаны скорость ветра в м/с - средняя за 10 мин, порывы в срок и между сроками (в фигурных скобках) и направление, откуда дует ветер: С - северный, СВ - северо-восточный, В - восточный, ЮВ - юго-восточный, Ю - южный, ЮЗ - юго-западный, З - западный, СЗ - северо-западный.
Видимость - горизонтальная дальность видимости в метрах или километрах. При видимости от 1 до 10 км при отсутствии осадков обычно наблюдается дымка, при ухудшении видимости до 1 км и менее - туман. В сухую погоду видимость может ухудшаться дымом, пылью или мглою.
Явления - указаны атмосферные явления, наблюдавшиеся в срок или в последний час перед сроком; фигурными скобками обозначены явления, наблюдавшиеся между сроками (за 1-3 часа до срока); квадратными скобками обозначены град или гололедные отложения с указанием их диаметра в мм.
Облачность - указаны через наклонную черту общая и нижняя облачность в баллах и высота нижней границы облаков в метрах; квадратными скобками обозначены формы облаков: Ci - перистые, Cs - перисто-слоистые, Cc - перисто-кучевые, Ac - высококучевые, As - высокослоистые, Sc - слоисто-кучевые, Ns - слоисто-дождевые, Cu - кучевые, Cb - кучево-дождевые. Подробнее классификацию облаков см. в Атласе облаков (PDF).
T - Температура воздуха - температура, измеренная на высоте 2 м над землей.
Td - Температура точки росы - температура, при понижении до которой содержащийся в воздухе водяной пар достигнет насыщения.
f - Относительная влажность воздуха - влажноcть воздуха, измеренная на высоте 2 м над землей.
Te - Эффективная температура - температура, которую ощущает одетый по сезону человек в тени. Характеристика душности погоды. При расчете учитывается влияние влажности воздуха и скорости ветра на теплоощущения человека.
Tes - Эффективная температура на солнце - температура, которую ощущает человек, с поправкой на солнечный нагрев. Характеристика знойности погоды. Зависит от высоты солнца над горизонтом, облачности и скорости ветра. Ночью, в пасмурную погоду, а также при ветре 12 м/с и более поправка равна нулю.
P - Атмосферное давление - приведенное к уровню моря атмосферное давление.
Po - Атмосферное давление - измеренное на уровне метеостанции атмосферное давление.
Tmin - Минимальная температура - минимум температуры воздуха на высоте 2 м над землей.
Tmax - Максимальная температура - максимум температуры воздуха на высоте 2 м над землей.
R - Количество осадков - Количество выпавших осадков за период времени, мм. При наведении курсора мыши на число - период времени, за который выпало указанное количество осадков.
R24 - Количество осадков - Количество выпавших осадков за 24 часа, мм.
S - Снежный покров - Высота снежного покрова, см. При наведении курсора мыши на число - состояние снежного покрова и степень покрытия местности в баллах.